OneWeb SL0348

operational
NORAD ID: 49213 Int'l Des: 2021-083 Owner: ONEWEBN Country: UK Constellation: oneweb
LEOCIRCULARPOLARONEWEB_TYPE

Über OneWeb SL0348

Beschreibung wird geladen...

Live-Position

3D-Globus wird geladen...

Nächste Überflüge

Höhenverlauf

Altitude vs Time

uPlot chart will show altitude changes over time

Zweizeiliger Elementsatz

1 49213U 21083AD 25306.44981647 .00000048 00000-0 86066-4 0 9994
2 49213 87.9182 319.6635 0001715 73.4962 286.6359 13.20771914206882
Epoch: 2. Nov. 2025 • Age: 9 hours

Aktueller Status

Höhe 1209.3 km
Geschwindigkeit 7.25 km/s
Subsatellitenpunkt -69.86°S, 173°E
Startdatum 14. Sept. 2021
Alter 4.1 years
Typ internet

Technische Details

Klassifizierung Payload
Masse 148.00 kg
Trockenmasse 140.00 kg
Gesamtmasse 148.00 kg
Länge 1.30 m
Durchmesser 1.00 m
Spannweite 5.00 m
Form Trapezoid+2 pan
Hersteller ONEWUS
Bus-Typ ARROW
Phasenstatus In Orbit
Besitzer/Staat ONEWEBN/UK

Große Konstellationen

Loading constellations...